Location: Rounton
(54.4000°N, 1.3500°W)
Time: 22:00:16
(UTC+00:00)

Vanguard 1 - Pass Details

Date: 30 November 2021
Orbit: 652 x 3830 km, 34.2° (Epoch: 16 January)

Event Time Altitude Azimuth Distance (km) Brightness Sun altitude
Rises 03:51:51 0° 255° (WSW) 7,969 - -35.1°
Reaches altitude 10° 03:58:07 10° 248° (WSW) 6,842 - -34.2°
Exits shadow 04:10:27 31° 221° (SW) 4,737 13.1 -32.4°
Maximum altitude 04:16:23 36° 193° (SSW) 4,071 12.9 -31.6°
Drops below altitude 10° 04:28:42 10° 133° (SE) 4,659 14.0 -29.8°
Sets 04:32:01 0° 124° (SE) 5,275 14.5 -29.3°
